Time,TemperatureF,DewpointF,PressureIn,WindDirection,WindDirectionDegrees,WindSpeedMPH,WindSpeedGustMPH,Humidity,HourlyPrecipIn,Conditions,Clouds,dailyrainin,SoftwareType,DateUTC
2013-11-02 00:04:00,48.0,42.0,-100.00,West,275,0.0,4.0,78,-99.99,,,-99.99,,2013-11-02 04:04:00,
2013-11-02 00:24:00,48.0,42.0,-100.00,West,275,0.0,1.0,78,-99.99,,,-99.99,,2013-11-02 04:24:00,
2013-11-02 00:54:00,48.0,42.0,-100.00,West,275,0.0,2.0,79,-99.99,,,-99.99,,2013-11-02 04:54:00,
2013-11-02 01:22:00,47.0,42.0,-100.00,WNW,285,0.0,2.0,80,-99.99,,,-99.99,,2013-11-02 05:22:00,
2013-11-02 01:52:00,47.0,42.0,-100.00,WNW,290,0.0,2.0,81,-99.99,,,-99.99,,2013-11-02 05:52:00,
2013-11-02 02:22:00,47.0,42.0,-100.00,WNW,290,0.0,2.0,83,-99.99,,,-99.99,,2013-11-02 06:22:00,
2013-11-02 02:52:00,47.0,43.0,-100.00,WNW,300,0.0,3.0,84,-99.99,,,-99.99,,2013-11-02 06:52:00,
2013-11-02 03:22:00,47.0,44.0,-100.00,NW,305,0.0,1.0,86,-99.99,,,-99.99,,2013-11-02 07:22:00,
2013-11-02 03:52:00,47.0,44.0,-100.00,NW,315,0.0,2.0,88,-99.99,,,-99.99,,2013-11-02 07:52:00,
2013-11-02 04:02:00,47.0,44.0,-100.00,NW,315,0.0,2.0,88,-99.99,,,-99.99,,2013-11-02 08:02:00,
2013-11-02 04:22:00,47.0,44.0,-100.00,NW,320,0.0,1.0,90,-99.99,,,-99.99,,2013-11-02 08:22:00,
2013-11-02 04:52:00,46.0,44.0,-100.00,NNW,330,0.0,3.0,92,-99.99,,,-99.99,,2013-11-02 08:52:00,
2013-11-02 05:21:00,46.0,45.0,-100.00,NNW,335,0.0,1.0,94,-99.99,,,-99.99,,2013-11-02 09:21:00,
2013-11-02 05:53:00,46.0,45.0,-100.00,NNW,340,0.0,1.0,95,-99.99,,,-99.99,,2013-11-02 09:53:00,
2013-11-02 06:23:00,46.0,45.0,-100.00,NNW,345,0.0,3.0,95,-99.99,,,-99.99,,2013-11-02 10:23:00,
2013-11-02 06:52:00,46.0,45.0,-100.00,NNW,345,0.0,0.0,96,-99.99,,,-99.99,,2013-11-02 10:52:00,
2013-11-02 07:22:00,46.0,45.0,-100.00,North,350,1.0,5.0,96,-99.99,,,-99.99,,2013-11-02 11:22:00,
2013-11-02 07:52:00,46.0,45.0,-100.00,North,350,0.0,2.0,96,-99.99,,,-99.99,,2013-11-02 11:52:00,
2013-11-02 08:22:00,46.0,45.0,-100.00,North,350,0.0,0.0,96,-99.99,,,-99.99,,2013-11-02 12:22:00,
2013-11-02 08:52:00,46.0,45.0,-100.00,North,350,0.0,1.0,97,-99.99,,,-99.99,,2013-11-02 12:52:00,
2013-11-02 09:22:00,46.0,45.0,-100.00,North,350,0.0,1.0,97,-99.99,,,-99.99,,2013-11-02 13:22:00,
2013-11-02 09:52:00,46.0,46.0,-100.00,North,350,0.0,2.0,97,-99.99,,,-99.99,,2013-11-02 13:52:00,
2013-11-02 10:21:00,46.0,46.0,-100.00,North,350,1.0,6.0,97,-99.99,,,-99.99,,2013-11-02 14:21:00,
2013-11-02 10:42:00,47.0,46.0,-100.00,North,350,1.0,5.0,97,-99.99,,,-99.99,,2013-11-02 14:42:00,
2013-11-02 10:52:00,47.0,46.0,-100.00,North,350,0.0,6.0,96,-99.99,,,-99.99,,2013-11-02 14:52:00,
2013-11-02 11:22:00,47.0,46.0,-100.00,North,350,1.0,6.0,96,-99.99,,,-99.99,,2013-11-02 15:22:00,
2013-11-02 11:33:00,47.0,46.0,-100.00,North,350,1.0,6.0,96,-99.99,,,-99.99,,2013-11-02 15:33:00,
2013-11-02 11:53:00,48.0,48.0,-100.00,North,350,2.0,6.0,96,-99.99,,,-99.99,,2013-11-02 15:53:00,
2013-11-02 12:23:00,48.0,46.0,-100.00,NNW,340,5.0,10.0,94,-99.99,,,-99.99,,2013-11-02 16:23:00,
2013-11-02 12:54:00,48.0,46.0,-100.00,NNW,340,4.0,8.0,94,-99.99,,,-99.99,,2013-11-02 16:54:00,
2013-11-02 13:22:00,49.0,46.0,-100.00,NW,315,5.0,10.0,89,-99.99,,,-99.99,,2013-11-02 17:22:00,
2013-11-02 13:53:00,49.0,44.0,-100.00,WNW,285,4.0,11.0,81,-99.99,,,-99.99,,2013-11-02 17:53:00,
2013-11-02 14:03:00,49.0,44.0,-100.00,WNW,285,4.0,11.0,81,-99.99,,,-99.99,,2013-11-02 18:03:00,
2013-11-02 14:22:00,50.0,42.0,-100.00,West,260,6.0,11.0,74,-99.99,,,-99.99,,2013-11-02 18:22:00,
2013-11-02 14:52:00,49.0,40.0,-100.00,WSW,245,2.0,9.0,70,-99.99,,,-99.99,,2013-11-02 18:52:00,
2013-11-02 15:22:00,51.0,40.0,-100.00,SW,225,4.0,11.0,66,-99.99,,,-99.99,,2013-11-02 19:22:00,
2013-11-02 15:52:00,50.0,39.0,-100.00,SW,215,5.0,8.0,64,-99.99,,,-99.99,,2013-11-02 19:52:00,
2013-11-02 16:22:00,50.0,38.0,-100.00,SSW,210,6.0,13.0,62,-99.99,,,-99.99,,2013-11-02 20:22:00,
2013-11-02 16:53:00,50.0,37.0,-100.00,SSW,205,2.0,10.0,61,-99.99,,,-99.99,,2013-11-02 20:53:00,
2013-11-02 17:22:00,49.0,37.0,-100.00,SW,215,4.0,9.0,63,-99.99,,,-99.99,,2013-11-02 21:22:00,
2013-11-02 17:54:00,49.0,37.0,-100.00,SSW,210,3.0,6.0,63,-99.99,,,-99.99,,2013-11-02 21:54:00,
2013-11-02 18:24:00,48.0,37.0,-100.00,SW,215,4.0,9.0,63,-99.99,,,-99.99,,2013-11-02 22:24:00,
2013-11-02 18:34:00,48.0,37.0,-100.00,SW,215,4.0,9.0,63,-99.99,,,-99.99,,2013-11-02 22:34:00,
2013-11-02 18:54:00,48.0,37.0,-100.00,SW,225,3.0,8.0,65,-99.99,,,-99.99,,2013-11-02 22:54:00,
2013-11-02 19:22:00,46.0,37.0,-100.00,WSW,240,3.0,6.0,70,-99.99,,,-99.99,,2013-11-02 23:22:00,
2013-11-02 19:42:00,46.0,37.0,-100.00,WSW,250,4.0,7.0,72,-99.99,,,-99.99,,2013-11-02 23:42:00,
2013-11-02 19:52:00,45.0,38.0,-100.00,West,265,2.0,6.0,76,-99.99,,,-99.99,,2013-11-02 23:52:00,
2013-11-02 20:11:00,45.0,38.0,-100.00,West,265,3.0,7.0,76,-99.99,,,-99.99,,2013-11-03 00:11:00,
2013-11-02 20:22:00,45.0,39.0,-100.00,West,275,2.0,6.0,79,-99.99,,,-99.99,,2013-11-03 00:22:00,
2013-11-02 20:50:00,44.0,39.0,-100.00,WNW,285,1.0,3.0,81,-99.99,,,-99.99,,2013-11-03 00:50:00,
2013-11-02 20:52:00,45.0,39.0,-100.00,West,280,1.0,3.0,80,-99.99,,,-99.99,,2013-11-03 00:52:00,
2013-11-02 21:22:00,44.0,39.0,-100.00,WNW,285,1.0,3.0,81,-99.99,,,-99.99,,2013-11-03 01:22:00,
2013-11-02 21:32:00,44.0,39.0,-100.00,WNW,285,1.0,3.0,81,-99.99,,,-99.99,,2013-11-03 01:32:00,
2013-11-02 21:42:00,44.0,39.0,-100.00,WNW,285,1.0,3.0,81,-99.99,,,-99.99,,2013-11-03 01:42:00,